7 * 24
多渠道服务支持
STARLINK-35459是美国SpaceX星链互联网星座中的一颗卫星,于2025年10月3日发射升空。作为星链计划的组成部分,它旨在为全球提供低延迟、高速率的卫星互联网服务,尤其覆盖偏远地区与网络基础设施匮乏区域,进一步扩充了星链星座的服务覆盖范围与网络容量。
美国
(US)
| 数据来源 | 国际轨道数据 |
| 星历时间: | 2026-09-03T11:37:04+0800 1天前 查看轨道信息 |
| 半长轴: | 6840.827km |
| 偏心率: | 0.0001312 |
| 轨道倾角: | 53.158° |
| 近地点辐角 | 88.496° |
| 升交点赤经 | 186.496° |
| 平近点角 | 271.620° |
| 近地点: | 461.792km |
| 远地点: | 463.588km |
| 周期: | 93.847分钟 |
| 每日圈数: | 15.344047 |
| 事件ID | 空间交会对象 | 最接近时刻(TCA) | 交会距离 | 交会风险概率(CRP) | 交会风险指数(CRI) | 操作 |
|---|---|---|---|---|---|---|
| CDM_260905-102406-344406-585621 |
STARLINK-33747
(63444)
STARLINK-35459
(65856) | 2026-09-05T 10:24:59+0000 |
0.512 km
远距离 | 1.709447E-4 高风险 | 0.8 | |
| CDM_260905-085106-344406-585621 |
STARLINK-33747
(63444)
STARLINK-35459
(65856) | 2026-09-05T 08:51:11+0000 |
1.006 km
极远距离 | 2.291438E-5 中风险 | 0.62 | |
| CDM_260905-091106-585606-826821 |
STARLINK-35459
(65856)
STARLINK-36999
(68268) | 2026-09-05T 09:11:20+0000 |
0.931 km
远距离 | 1.039547E-5 中风险 | 0.55 | |
| CDM_260827-215406-487506-585621 |
REAL
(64875)
STARLINK-35459
(65856) | 2026-08-27T 21:54:55+0000 |
1.429 km
极远距离 | 6.591668E-6 低风险 | 0.51 | |
| CDM_260905-065006-585606-826821 |
STARLINK-35459
(65856)
STARLINK-36999
(68268) | 2026-09-05T 06:50:39+0000 |
1.260 km
极远距离 | 3.722679E-6 低风险 | 0.46 | |
| CDM_260905-115806-344406-585621 |
STARLINK-33747
(63444)
STARLINK-35459
(65856) | 2026-09-05T 11:58:46+0000 |
1.931 km
极远距离 | 2.735979E-6 低风险 | 0.44 | |
| CDM_260827-202106-487506-585621 |
REAL
(64875)
STARLINK-35459
(65856) | 2026-08-27T 20:21:04+0000 |
1.911 km
极远距离 | 2.728645E-6 低风险 | 0.44 | |
| CDM_260905-071706-344406-585621 |
STARLINK-33747
(63444)
STARLINK-35459
(65856) | 2026-09-05T 07:17:24+0000 |
2.414 km
极远距离 | 1.649212E-6 低风险 | 0.39 | |
| CDM_260902-054005-353906-585621 |
STARLINK-4123
(53539)
STARLINK-35459
(65856) | 2026-09-02T 05:40:30+0000 |
2.941 km
极远距离 | 1.223293E-6 低风险 | 0.37 | |
| CDM_260905-073706-585606-826821 |
STARLINK-35459
(65856)
STARLINK-36999
(68268) | 2026-09-05T 07:37:33+0000 |
2.861 km
极远距离 | 5.492843E-7 极低风险 | 0.3 |